SBI6242 ZBAD-UHWW

Flight info

Callsign SBI6242
Flight time 1h 51m
Altitude 33000
Route DOTRA B334 TGO G341 WQG B451 SANAR SANAR2M
Aircraft A320/M-SDE3FGHIRWY/LB1

Departure

Time 2026-04-15 10:51
Airport Beijing Daxing International Airport (ZBAD)

Arrival

Time 2026-04-15 12:43
Airport Vladivostok International Airport (UHWW)
Time Latitude Longitude Altitude Speed Heading
2026-04-15 10:16 39.50428 116.41302 95 ft 0 kts 338°
2026-04-15 10:41 39.50422 116.41305 95 ft 4 kts 339°
2026-04-15 10:41 39.50397 116.41317 95 ft 4 kts 341°
2026-04-15 10:42 39.50371 116.41328 94 ft 4 kts 339°
2026-04-15 10:42 39.50347 116.41342 95 ft 4 kts 325°
2026-04-15 10:42 39.50328 116.41366 94 ft 4 kts 290°
2026-04-15 10:42 39.50325 116.41387 93 ft 0 kts 263°
2026-04-15 10:45 39.50324 116.41376 95 ft 6 kts 263°
2026-04-15 10:45 39.50314 116.41269 95 ft 19 kts 264°
2026-04-15 10:46 39.50293 116.41053 95 ft 29 kts 263°
2026-04-15 10:46 39.50218 116.40920 96 ft 23 kts 179°
2026-04-15 10:46 39.50166 116.40788 96 ft 22 kts 259°
2026-04-15 10:46 39.50142 116.40549 97 ft 32 kts 263°
2026-04-15 10:47 39.50111 116.40232 97 ft 25 kts 264°
2026-04-15 10:47 39.50161 116.40095 95 ft 23 kts 341°
2026-04-15 10:47 39.50352 116.40060 95 ft 34 kts 353°
2026-04-15 10:47 39.50627 116.40016 95 ft 44 kts 353°
2026-04-15 10:48 39.50943 116.39966 95 ft 47 kts 352°
2026-04-15 10:48 39.51230 116.39923 95 ft 37 kts 352°
2026-04-15 10:48 39.51386 116.39869 95 ft 11 kts 342°
2026-04-15 10:48 39.51430 116.39760 95 ft 20 kts 263°
2026-04-15 10:49 39.51338 116.39652 96 ft 17 kts 222°
2026-04-15 10:49 39.51312 116.39465 95 ft 26 kts 263°
2026-04-15 10:49 39.51289 116.39196 96 ft 31 kts 263°
2026-04-15 10:49 39.51357 116.39102 96 ft 17 kts 315°
2026-04-15 10:50 39.51361 116.39023 96 ft 9 kts 261°
2026-04-15 10:50 39.51348 116.38877 96 ft 23 kts 263°
2026-04-15 10:50 39.51299 116.38801 95 ft 2 kts 164°
2026-04-15 10:50 39.51178 116.38823 95 ft 50 kts 173°
2026-04-15 10:51 39.50547 116.38918 97 ft 129 kts 173°
2026-04-15 10:51 39.49447 116.39065 130 ft 182 kts 182°
2026-04-15 10:51 39.48137 116.39091 791 ft 194 kts 177°
2026-04-15 10:51 39.46773 116.39280 1630 ft 203 kts 172°
2026-04-15 10:52 39.45301 116.39552 2049 ft 225 kts 172°
2026-04-15 10:52 39.43723 116.40052 2441 ft 247 kts 153°
2026-04-15 10:52 39.42423 116.41550 3171 ft 259 kts 123°
2026-04-15 10:52 39.41910 116.43814 3954 ft 271 kts 89°
2026-04-15 10:53 39.42467 116.46140 4723 ft 278 kts 54°
2026-04-15 10:53 39.43951 116.47709 5511 ft 279 kts 19°
2026-04-15 10:53 39.45837 116.48259 6364 ft 278 kts
2026-04-15 10:53 39.47761 116.48568 7224 ft 279 kts
2026-04-15 10:54 39.49698 116.48817 8064 ft 280 kts
2026-04-15 10:54 39.51649 116.49060 8905 ft 282 kts
2026-04-15 10:54 39.53611 116.49322 9741 ft 284 kts
2026-04-15 10:54 39.55601 116.49607 10304 ft 296 kts
2026-04-15 10:55 39.57728 116.49923 10506 ft 320 kts
2026-04-15 10:55 39.60020 116.50277 10672 ft 342 kts
2026-04-15 10:55 39.62427 116.50663 11133 ft 352 kts
2026-04-15 10:55 39.64877 116.51061 11791 ft 356 kts
2026-04-15 10:56 39.67353 116.51466 12489 ft 359 kts
2026-04-15 10:56 39.69814 116.51867 13185 ft 362 kts
2026-04-15 10:56 39.72332 116.52277 13857 ft 365 kts
2026-04-15 10:56 39.74871 116.52691 14458 ft 368 kts
2026-04-15 10:57 39.77424 116.53105 15059 ft 370 kts
2026-04-15 10:57 39.82290 116.53890 16157 ft 375 kts
2026-04-15 10:57 39.84893 116.54311 16734 ft 378 kts
2026-04-15 10:58 39.87513 116.54735 17294 ft 381 kts
2026-04-15 10:58 39.90158 116.55162 17858 ft 383 kts
2026-04-15 10:58 39.92819 116.55592 18375 ft 385 kts
2026-04-15 10:58 39.95486 116.56023 18857 ft 388 kts
2026-04-15 10:59 39.98181 116.56459 19318 ft 391 kts
2026-04-15 10:59 40.00893 116.56900 19767 ft 394 kts
2026-04-15 10:59 40.03584 116.57338 20209 ft 397 kts
2026-04-15 10:59 40.06349 116.57788 20645 ft 400 kts
2026-04-15 11:00 40.09124 116.58242 21081 ft 403 kts
2026-04-15 11:00 40.11918 116.58701 21501 ft 405 kts
2026-04-15 11:00 40.14729 116.59159 21926 ft 408 kts
2026-04-15 11:00 40.17568 116.59619 22339 ft 411 kts
2026-04-15 11:01 40.20385 116.60079 22744 ft 414 kts
2026-04-15 11:01 40.23260 116.60546 23144 ft 417 kts
2026-04-15 11:01 40.26158 116.61017 23527 ft 420 kts
2026-04-15 11:01 40.29076 116.61493 23844 ft 423 kts
2026-04-15 11:02 40.32009 116.61973 24164 ft 426 kts
2026-04-15 11:02 40.34921 116.62452 24489 ft 428 kts
2026-04-15 11:02 40.37871 116.62939 24814 ft 430 kts
2026-04-15 11:02 40.40870 116.63432 25148 ft 432 kts
2026-04-15 11:03 40.43878 116.63927 25467 ft 435 kts
2026-04-15 11:03 40.46886 116.64423 25760 ft 437 kts
2026-04-15 11:03 40.49869 116.64917 26079 ft 439 kts
2026-04-15 11:03 40.52917 116.65428 26365 ft 441 kts
2026-04-15 11:04 40.54934 116.65764 26547 ft 442 kts
2026-04-15 11:04 40.58007 116.66273 26823 ft 444 kts
2026-04-15 11:04 40.62091 116.66947 27194 ft 447 kts
2026-04-15 11:04 40.65187 116.67458 27480 ft 449 kts
2026-04-15 11:05 40.67290 116.67807 27667 ft 451 kts
2026-04-15 11:05 40.70379 116.68317 27939 ft 453 kts
2026-04-15 11:05 40.73521 116.68834 28211 ft 455 kts
2026-04-15 11:05 40.76669 116.69350 28502 ft 456 kts
2026-04-15 11:06 40.79825 116.69877 28900 ft 455 kts
2026-04-15 11:06 40.82967 116.70404 29292 ft 455 kts
2026-04-15 11:06 40.86074 116.70926 29680 ft 454 kts
2026-04-15 11:06 40.89210 116.71454 30055 ft 453 kts
2026-04-15 11:07 40.92344 116.71978 30375 ft 453 kts
2026-04-15 11:07 40.95479 116.72496 30678 ft 452 kts
2026-04-15 11:07 40.98612 116.73014 30969 ft 452 kts 360°
2026-04-15 11:07 41.01690 116.73525 31264 ft 452 kts 360°
2026-04-15 11:08 41.04824 116.74050 31543 ft 453 kts 360°
2026-04-15 11:08 41.07961 116.74580 31809 ft 453 kts 360°
2026-04-15 11:08 41.11085 116.75107 32081 ft 453 kts 360°
2026-04-15 11:08 41.14216 116.75633 32377 ft 453 kts 360°
2026-04-15 11:09 41.17337 116.76154 32696 ft 452 kts 359°
2026-04-15 11:09 41.20470 116.76680 32885 ft 453 kts 359°
2026-04-15 11:09 41.26740 116.77739 32912 ft 455 kts 360°
2026-04-15 11:10 41.33026 116.78801 32905 ft 455 kts 359°
2026-04-15 11:10 41.39266 116.79856 32909 ft 454 kts 359°
2026-04-15 11:11 41.45529 116.80917 32902 ft 453 kts 359°
2026-04-15 11:11 41.51806 116.81983 32907 ft 454 kts 359°
2026-04-15 11:12 41.58091 116.83056 32907 ft 454 kts 360°
2026-04-15 11:12 41.64310 116.84423 32899 ft 463 kts 10°
2026-04-15 11:13 41.67327 116.86111 32902 ft 475 kts 22°
2026-04-15 11:13 41.70071 116.88637 32898 ft 486 kts 35°
2026-04-15 11:13 41.72423 116.91956 32681 ft 496 kts 48°
2026-04-15 11:13 41.74222 116.95953 32849 ft 508 kts 60°
2026-04-15 11:14 41.77261 117.04663 32893 ft 522 kts 60°
2026-04-15 11:14 41.80343 117.13559 32888 ft 526 kts 60°
2026-04-15 11:15 41.83400 117.22443 32894 ft 527 kts 60°
2026-04-15 11:15 41.86476 117.31374 32892 ft 527 kts 60°
2026-04-15 11:16 41.89557 117.40322 32898 ft 527 kts 60°
2026-04-15 11:16 41.92621 117.49271 32904 ft 526 kts 60°
2026-04-15 11:17 41.95663 117.58180 32905 ft 526 kts 60°
2026-04-15 11:17 41.98701 117.67091 32905 ft 525 kts 60°
2026-04-15 11:18 42.01737 117.76049 32913 ft 525 kts 60°
2026-04-15 11:18 42.04758 117.84991 32911 ft 524 kts 60°
2026-04-15 11:19 42.07773 117.93929 32910 ft 524 kts 60°
2026-04-15 11:19 42.10758 118.02807 32912 ft 523 kts 60°
2026-04-15 11:20 42.13754 118.11751 32908 ft 522 kts 60°
2026-04-15 11:20 42.16731 118.20671 32898 ft 521 kts 60°
2026-04-15 11:21 42.19701 118.29512 32891 ft 520 kts 59°
2026-04-15 11:21 42.22880 118.38288 32887 ft 518 kts 57°
2026-04-15 11:22 42.26109 118.46929 32883 ft 518 kts 57°
2026-04-15 11:22 42.29307 118.55652 32872 ft 518 kts 58°
2026-04-15 11:23 42.32451 118.64401 32868 ft 518 kts 58°
2026-04-15 11:23 42.35581 118.73176 32851 ft 518 kts 58°
2026-04-15 11:24 42.38717 118.81961 32849 ft 518 kts 58°
2026-04-15 11:24 42.41860 118.90748 32843 ft 517 kts 57°
2026-04-15 11:25 42.44971 118.99468 32841 ft 517 kts 57°
2026-04-15 11:25 42.48083 119.08243 32839 ft 517 kts 57°
2026-04-15 11:26 42.51189 119.17039 32836 ft 517 kts 58°
2026-04-15 11:26 42.54292 119.25847 32829 ft 516 kts 57°
2026-04-15 11:27 42.57387 119.34626 32989 ft 516 kts 59°
2026-04-15 11:27 42.58908 119.38960 32796 ft 513 kts 60°
2026-04-15 11:27 42.60431 119.43318 32787 ft 509 kts 60°
2026-04-15 11:28 42.63465 119.52022 32783 ft 509 kts 60°
2026-04-15 11:28 42.66494 119.60739 32788 ft 510 kts 60°
2026-04-15 11:29 42.69529 119.69486 32787 ft 511 kts 60°
2026-04-15 11:29 42.72540 119.78180 32790 ft 511 kts 60°
2026-04-15 11:30 42.75564 119.86967 32785 ft 512 kts 60°
2026-04-15 11:30 42.78587 119.95766 32786 ft 512 kts 60°
2026-04-15 11:31 42.81585 120.04497 32787 ft 512 kts 60°
2026-04-15 11:31 42.84596 120.13313 32781 ft 512 kts 58°
2026-04-15 11:32 42.87606 120.22165 32811 ft 514 kts 58°
2026-04-15 11:32 42.90601 120.31008 32810 ft 513 kts 58°
2026-04-15 11:33 42.93578 120.39807 32805 ft 512 kts 58°
2026-04-15 11:33 42.96555 120.48637 32803 ft 511 kts 58°
2026-04-15 11:34 42.99597 120.57371 32807 ft 508 kts 56°
2026-04-15 11:34 43.02728 120.65987 32808 ft 507 kts 56°
2026-04-15 11:35 43.05857 120.74648 32807 ft 507 kts 56°
2026-04-15 11:35 43.08934 120.83328 32809 ft 506 kts 57°
2026-04-15 11:36 43.11987 120.92000 32809 ft 506 kts 57°
2026-04-15 11:36 43.15023 121.00634 32810 ft 505 kts 57°
2026-04-15 11:37 43.18071 121.09326 32807 ft 505 kts 57°
2026-04-15 11:37 43.21110 121.18020 32808 ft 504 kts 57°
2026-04-15 11:38 43.24129 121.26660 32809 ft 504 kts 57°
2026-04-15 11:38 43.27158 121.35344 32809 ft 503 kts 57°
2026-04-15 11:39 43.30170 121.44017 32810 ft 503 kts 57°
2026-04-15 11:39 43.33154 121.52653 32803 ft 503 kts 57°
2026-04-15 11:40 43.36146 121.61347 32809 ft 503 kts 57°
2026-04-15 11:40 43.39134 121.70042 32808 ft 502 kts 57°
2026-04-15 11:41 43.42107 121.78723 32815 ft 502 kts 57°
2026-04-15 11:41 43.45075 121.87418 32809 ft 501 kts 57°
2026-04-15 11:42 43.48021 121.96067 32813 ft 501 kts 57°
2026-04-15 11:42 43.50969 122.04761 32808 ft 500 kts 58°
2026-04-15 11:43 43.53901 122.13444 32812 ft 500 kts 58°
2026-04-15 11:43 43.56075 122.22657 32809 ft 513 kts 76°
2026-04-15 11:44 43.56734 122.32527 32811 ft 516 kts 81°
2026-04-15 11:44 43.57294 122.42340 32818 ft 516 kts 81°
2026-04-15 11:45 43.57867 122.52208 32826 ft 515 kts 81°
2026-04-15 11:45 43.58423 122.62068 32830 ft 515 kts 81°
2026-04-15 11:46 43.58953 122.71925 32841 ft 514 kts 81°
2026-04-15 11:46 43.59483 122.81733 32847 ft 513 kts 81°
2026-04-15 11:47 43.60006 122.91553 32855 ft 513 kts 82°
2026-04-15 11:47 43.60515 123.01385 32855 ft 512 kts 82°
2026-04-15 11:48 43.61011 123.11132 32863 ft 511 kts 82°
2026-04-15 11:48 43.61495 123.20935 32866 ft 510 kts 82°
2026-04-15 11:49 43.62078 123.30695 32869 ft 508 kts 80°
2026-04-15 11:49 43.62749 123.40378 32871 ft 507 kts 80°
2026-04-15 11:50 43.63406 123.50070 32874 ft 507 kts 81°
2026-04-15 11:50 43.63910 123.58138 32872 ft 506 kts 81°
2026-04-15 11:51 43.64587 123.69389 32872 ft 505 kts 81°
2026-04-15 11:51 43.65072 123.77430 32876 ft 504 kts 81°
2026-04-15 11:52 43.65650 123.87078 32876 ft 503 kts 81°
2026-04-15 11:52 43.66218 123.96699 32885 ft 502 kts 81°
2026-04-15 11:53 43.66775 124.06253 32882 ft 501 kts 81°
2026-04-15 11:53 43.67331 124.15856 32886 ft 500 kts 81°
2026-04-15 11:54 43.67874 124.25433 32888 ft 499 kts 81°
2026-04-15 11:54 43.68417 124.34929 32892 ft 497 kts 81°
2026-04-15 11:55 43.69042 124.44439 32895 ft 496 kts 80°
2026-04-15 11:55 43.69688 124.53914 32897 ft 495 kts 80°
2026-04-15 11:56 43.70311 124.63420 32902 ft 494 kts 81°
2026-04-15 11:56 43.70897 124.72844 32898 ft 494 kts 81°
2026-04-15 11:57 43.71761 124.87027 32900 ft 493 kts 81°
2026-04-15 11:58 43.72334 124.96495 32903 ft 493 kts 81°
2026-04-15 11:58 43.72899 125.05882 32908 ft 492 kts 81°
2026-04-15 11:59 43.73459 125.15315 32906 ft 492 kts 81°
2026-04-15 11:59 43.74007 125.24763 32911 ft 492 kts 81°
2026-04-15 12:00 43.74546 125.34129 32916 ft 492 kts 81°
2026-04-15 12:00 43.75085 125.43584 32922 ft 492 kts 81°
2026-04-15 12:01 43.75608 125.53026 32930 ft 491 kts 81°
2026-04-15 12:01 43.76122 125.62458 32929 ft 491 kts 81°
2026-04-15 12:02 43.76624 125.71839 32935 ft 491 kts 81°
2026-04-15 12:02 43.77120 125.81251 32938 ft 490 kts 82°
2026-04-15 12:03 43.76712 125.90724 32947 ft 497 kts 96°
2026-04-15 12:03 43.75645 126.00174 32950 ft 497 kts 95°
2026-04-15 12:04 43.74701 126.09626 32968 ft 496 kts 94°
2026-04-15 12:04 43.73814 126.19057 32979 ft 496 kts 94°
2026-04-15 12:05 43.72890 126.28501 32982 ft 495 kts 95°
2026-04-15 12:05 43.71923 126.37949 32987 ft 495 kts 95°
2026-04-15 12:06 43.70950 126.47344 32992 ft 494 kts 95°
2026-04-15 12:06 43.69976 126.56774 32993 ft 494 kts 95°
2026-04-15 12:07 43.69002 126.66171 32994 ft 494 kts 95°
2026-04-15 12:07 43.68024 126.75509 32253 ft 492 kts 95°
2026-04-15 12:07 43.67526 126.80214 31391 ft 493 kts 95°
2026-04-15 12:08 43.67027 126.84927 30590 ft 494 kts 95°
2026-04-15 12:08 43.66528 126.89625 29728 ft 494 kts 95°
2026-04-15 12:08 43.66030 126.94283 28765 ft 495 kts 96°
2026-04-15 12:08 43.65525 126.98985 27782 ft 496 kts 96°
2026-04-15 12:09 43.65018 127.03697 26777 ft 497 kts 96°
2026-04-15 12:09 43.64506 127.08449 25784 ft 498 kts 96°
2026-04-15 12:09 43.63999 127.13136 24811 ft 498 kts 96°
2026-04-15 12:09 43.63485 127.17866 23791 ft 498 kts 96°
2026-04-15 12:10 43.62967 127.22615 22603 ft 499 kts 97°
2026-04-15 12:10 43.62445 127.27378 21609 ft 498 kts 97°
2026-04-15 12:10 43.61909 127.32100 21243 ft 496 kts 97°
2026-04-15 12:10 43.61345 127.36747 21022 ft 495 kts 98°
2026-04-15 12:11 43.60750 127.41430 21056 ft 495 kts 98°
2026-04-15 12:11 43.60142 127.46128 21060 ft 495 kts 98°
2026-04-15 12:11 43.59536 127.50802 21060 ft 495 kts 98°
2026-04-15 12:11 43.58931 127.55498 21070 ft 495 kts 98°
2026-04-15 12:12 43.58342 127.60118 21067 ft 495 kts 98°
2026-04-15 12:12 43.57748 127.64814 21073 ft 495 kts 98°
2026-04-15 12:12 43.57157 127.69505 21075 ft 495 kts 98°
2026-04-15 12:12 43.56563 127.74195 21083 ft 495 kts 98°
2026-04-15 12:13 43.55966 127.78855 21089 ft 495 kts 98°
2026-04-15 12:13 43.55369 127.83479 21094 ft 495 kts 98°
2026-04-15 12:13 43.54764 127.88156 21095 ft 495 kts 98°
2026-04-15 12:13 43.54162 127.92831 21101 ft 495 kts 98°
2026-04-15 12:14 43.53557 127.97520 21101 ft 495 kts 98°
2026-04-15 12:14 43.52951 128.02187 21106 ft 495 kts 98°
2026-04-15 12:14 43.52350 128.06800 21109 ft 495 kts 98°
2026-04-15 12:14 43.51740 128.11470 21110 ft 494 kts 98°
2026-04-15 12:15 43.51127 128.16141 21111 ft 494 kts 98°
2026-04-15 12:15 43.50512 128.20795 21113 ft 494 kts 98°
2026-04-15 12:15 43.49896 128.25458 21116 ft 494 kts 98°
2026-04-15 12:15 43.49276 128.30127 21116 ft 494 kts 98°
2026-04-15 12:16 43.48673 128.34777 21120 ft 494 kts 98°
2026-04-15 12:16 43.48084 128.39449 21124 ft 494 kts 98°
2026-04-15 12:16 43.47503 128.44140 21127 ft 494 kts 97°
2026-04-15 12:16 43.46931 128.48738 21130 ft 494 kts 98°
2026-04-15 12:17 43.46346 128.53394 21126 ft 494 kts 98°
2026-04-15 12:17 43.45749 128.58080 21131 ft 495 kts 98°
2026-04-15 12:17 43.45149 128.62728 21138 ft 495 kts 98°
2026-04-15 12:17 43.44544 128.67394 21140 ft 495 kts 98°
2026-04-15 12:18 43.43938 128.72056 21143 ft 495 kts 98°
2026-04-15 12:18 43.43329 128.76737 21143 ft 495 kts 98°
2026-04-15 12:18 43.42720 128.81405 21146 ft 495 kts 98°
2026-04-15 12:18 43.42118 128.86018 21153 ft 495 kts 98°
2026-04-15 12:19 43.41508 128.90683 21153 ft 495 kts 98°
2026-04-15 12:19 43.40896 128.95347 21159 ft 495 kts 98°
2026-04-15 12:19 43.40281 129.00022 21158 ft 495 kts 98°
2026-04-15 12:19 43.39664 129.04684 21159 ft 495 kts 98°
2026-04-15 12:20 43.39051 129.09286 21161 ft 496 kts 98°
2026-04-15 12:20 43.38416 129.13964 21160 ft 496 kts 98°
2026-04-15 12:20 43.37772 129.18622 21160 ft 496 kts 98°
2026-04-15 12:20 43.37121 129.23274 21169 ft 496 kts 99°
2026-04-15 12:21 43.36464 129.27940 21165 ft 496 kts 99°
2026-04-15 12:21 43.35812 129.32588 21166 ft 496 kts 98°
2026-04-15 12:21 43.35161 129.37254 21168 ft 496 kts 98°
2026-04-15 12:21 43.34522 129.41860 21166 ft 496 kts 98°
2026-04-15 12:22 43.33875 129.46515 21169 ft 496 kts 98°
2026-04-15 12:22 43.33218 129.51206 21171 ft 497 kts 98°
2026-04-15 12:22 43.32560 129.55871 21169 ft 497 kts 98°
2026-04-15 12:22 43.31901 129.60524 21171 ft 497 kts 98°
2026-04-15 12:23 43.31244 129.65134 21173 ft 497 kts 99°
2026-04-15 12:23 43.30577 129.69784 21176 ft 497 kts 99°
2026-04-15 12:23 43.29907 129.74441 21177 ft 497 kts 99°
2026-04-15 12:23 43.29323 129.79142 21172 ft 495 kts 92°
2026-04-15 12:24 43.29134 129.83862 21181 ft 494 kts 90°
2026-04-15 12:24 43.28968 129.88520 21179 ft 494 kts 90°
2026-04-15 12:24 43.28796 129.93234 21187 ft 494 kts 90°
2026-04-15 12:24 43.28615 129.97954 21184 ft 494 kts 90°
2026-04-15 12:25 43.28431 130.02664 21189 ft 494 kts 90°
2026-04-15 12:25 43.28246 130.07378 21191 ft 494 kts 90°
2026-04-15 12:25 43.28063 130.12024 21194 ft 494 kts 90°
2026-04-15 12:25 43.27875 130.16738 21195 ft 493 kts 90°
2026-04-15 12:26 43.27684 130.21451 21193 ft 493 kts 90°
2026-04-15 12:26 43.27494 130.26157 21199 ft 493 kts 90°
2026-04-15 12:26 43.27303 130.30869 21199 ft 493 kts 90°
2026-04-15 12:26 43.27113 130.35569 21197 ft 493 kts 90°
2026-04-15 12:27 43.26924 130.40225 21199 ft 493 kts 90°
2026-04-15 12:27 43.26730 130.44933 21199 ft 493 kts 90°
2026-04-15 12:27 43.26532 130.49628 21198 ft 493 kts 90°
2026-04-15 12:27 43.26331 130.54322 21199 ft 492 kts 90°
2026-04-15 12:28 43.26127 130.59020 21205 ft 492 kts 90°
2026-04-15 12:28 43.25923 130.63657 21205 ft 492 kts 90°
2026-04-15 12:28 43.25717 130.68348 21203 ft 492 kts 90°
2026-04-15 12:28 43.25507 130.73036 21208 ft 492 kts 90°
2026-04-15 12:29 43.25296 130.77736 21206 ft 492 kts 90°
2026-04-15 12:29 43.25083 130.82431 21208 ft 492 kts 90°
2026-04-15 12:29 43.24870 130.87105 21211 ft 492 kts 90°
2026-04-15 12:29 43.24656 130.91783 21211 ft 492 kts 90°
2026-04-15 12:30 43.24440 130.96438 21209 ft 492 kts 90°
2026-04-15 12:30 43.24222 131.01115 21212 ft 492 kts 90°
2026-04-15 12:30 43.24002 131.05812 21210 ft 492 kts 90°
2026-04-15 12:30 43.23781 131.10488 21197 ft 482 kts 90°
2026-04-15 12:31 43.23563 131.14866 20648 ft 455 kts 90°
2026-04-15 12:31 43.23347 131.19182 19372 ft 449 kts 90°
2026-04-15 12:31 43.23113 131.23431 18167 ft 443 kts 91°
2026-04-15 12:31 43.22837 131.27605 16936 ft 435 kts 92°
2026-04-15 12:32 43.22536 131.31704 15790 ft 427 kts 92°
2026-04-15 12:32 43.22226 131.35724 14677 ft 420 kts 93°
2026-04-15 12:32 43.21920 131.39670 13539 ft 412 kts 92°
2026-04-15 12:32 43.21626 131.43500 12401 ft 404 kts 94°
2026-04-15 12:33 43.21004 131.47232 11292 ft 399 kts 105°
2026-04-15 12:33 43.20150 131.50823 10200 ft 391 kts 105°
2026-04-15 12:33 43.19307 131.54330 9055 ft 382 kts 106°
2026-04-15 12:33 43.18544 131.57725 7974 ft 370 kts 99°
2026-04-15 12:34 43.18426 131.61161 6947 ft 355 kts 81°
2026-04-15 12:34 43.19092 131.64351 5826 ft 343 kts 64°
2026-04-15 12:34 43.20223 131.67191 4570 ft 338 kts 60°
2026-04-15 12:34 43.21381 131.69999 3577 ft 336 kts 60°
2026-04-15 12:35 43.22495 131.72694 3197 ft 315 kts 61°
2026-04-15 12:35 43.23521 131.75179 3049 ft 284 kts 61°
2026-04-15 12:35 43.24444 131.77422 2984 ft 258 kts 61°
2026-04-15 12:35 43.25311 131.79542 2992 ft 248 kts 62°
2026-04-15 12:36 43.26099 131.81506 2990 ft 222 kts 62°
2026-04-15 12:36 43.26814 131.83269 2996 ft 204 kts 61°
2026-04-15 12:36 43.27488 131.84922 3008 ft 190 kts 61°
2026-04-15 12:36 43.28093 131.86403 3017 ft 167 kts 62°
2026-04-15 12:37 43.28460 131.87300 3000 ft 159 kts 62°
2026-04-15 12:37 43.29142 131.88974 3003 ft 144 kts 62°
2026-04-15 12:37 43.29627 131.90164 3001 ft 141 kts 62°
2026-04-15 12:37 43.30105 131.91335 3001 ft 140 kts 62°
2026-04-15 12:38 43.30420 131.92110 3007 ft 140 kts 62°
2026-04-15 12:38 43.30896 131.93277 3004 ft 140 kts 62°
2026-04-15 12:38 43.31525 131.94824 2999 ft 140 kts 62°
2026-04-15 12:38 43.31848 131.95616 2939 ft 140 kts 62°
2026-04-15 12:39 43.32477 131.97162 2745 ft 140 kts 62°
2026-04-15 12:39 43.32950 131.98324 2566 ft 139 kts 62°
2026-04-15 12:39 43.33269 131.99110 2444 ft 139 kts 61°
2026-04-15 12:39 43.33735 132.00257 2258 ft 139 kts 61°
2026-04-15 12:40 43.34205 132.01414 2070 ft 139 kts 61°
2026-04-15 12:40 43.34674 132.02570 1875 ft 138 kts 60°
2026-04-15 12:40 43.35143 132.03724 1680 ft 138 kts 60°
2026-04-15 12:40 43.35609 132.04872 1490 ft 138 kts 60°
2026-04-15 12:41 43.36076 132.06025 1296 ft 138 kts 60°
2026-04-15 12:41 43.36546 132.07182 1089 ft 139 kts 60°
2026-04-15 12:41 43.37015 132.08341 874 ft 139 kts 60°
2026-04-15 12:41 43.37484 132.09499 674 ft 139 kts 60°
2026-04-15 12:42 43.37952 132.10655 476 ft 138 kts 60°
2026-04-15 12:42 43.38422 132.11817 203 ft 137 kts 61°
2026-04-15 12:42 43.38881 132.12960 114 ft 137 kts 61°
2026-04-15 12:42 43.39333 132.14091 35 ft 124 kts 58°
2026-04-15 12:43 43.39593 132.14693 33 ft 55 kts 62°
2026-04-15 12:43 43.39759 132.15113 34 ft 40 kts 61°
2026-04-15 12:43 43.39885 132.15425 33 ft 36 kts 61°
2026-04-15 12:43 43.40004 132.15726 31 ft 35 kts 61°
2026-04-15 12:44 43.40121 132.16016 31 ft 34 kts 60°
2026-04-15 12:44 43.40236 132.16293 32 ft 33 kts 62°
2026-04-15 12:44 43.40335 132.16558 31 ft 14 kts 63°
2026-04-15 12:44 43.40386 132.16670 32 ft 20 kts 59°
2026-04-15 12:45 43.40415 132.16847 31 ft 20 kts 137°
2026-04-15 12:45 43.40329 132.16926 33 ft 1 kts 152°
2026-04-15 12:46 43.40266 132.16971 32 ft 19 kts 152°
2026-04-15 12:46 43.40120 132.17082 32 ft 21 kts 158°
2026-04-15 12:47 43.40025 132.16981 33 ft 23 kts 232°
2026-04-15 12:47 43.40004 132.16931 33 ft 11 kts 245°
2026-04-15 12:50 43.39994 132.16898 33 ft 14 kts 245°
2026-04-15 12:50 43.39939 132.16750 33 ft 19 kts 239°
2026-04-15 12:50 43.39871 132.16583 33 ft 20 kts 241°
2026-04-15 12:50 43.39820 132.16511 33 ft 7 kts 171°
2026-04-15 12:51 43.39764 132.16549 32 ft 5 kts 151°
2026-04-15 12:51 43.39758 132.16554 32 ft 0 kts 150°
2026-04-15 12:51 43.39756 132.16556 32 ft 0 kts 150°